www.pogodaiklimat.ru

Погода и климат >> Архив погоды >> Канада >> Vancouver


АРХИВ ПОГОДЫ в Vancouver

Время (UTC), дата Ветер
(напр.,м/с)
 
Видим.   Явления Облачность Т
(С)
Тd
(С)
f
(%)
Тe
(С)
Тes
(С)
Комфортность P
(гПа)
Po
(гПа)
Тmin
(С)
Tmax
(С)
R
(мм)
R24
(мм)
S
(см)
06 17.05 В 5 30 км 6/1 1500 м
[Sc Ac As]
+9.4 +6.7 83 +6 +6 прохладно 1011.7 1011.2 +5.9 +13.2 111
09 17.05 В 4 24 км 10/10 1000 м
[]
+9.7 +5.9 77 +7 +7 прохладно 1014.0 1013.5
12 17.05 В 4 24 км 10/10 600 м
[Sc]
+9.4 +6.9 84 +6 +6 по сезону 1016.0 1015.5 +9.1 +13.2
15 17.05 В 4 30 км 10/10 300 м
[]
+10.2 +6.9 80 +8 +8 прохладно 1018.4 1017.9
18 17.05 В 5 30 км 10/10 1000 м
[Sc]
+12.1 +8.0 76 +10 +10 прохладно 1020.2 1019.7 +9.1 +12.1
21 17.05 ЮВ 3 45 км 10/10 600 м
[]
+13.8 +8.3 69 +13 +13 по сезону 1020.8 1020.3
00 18.05 ЮЗ 5 45 км 10/10 600 м
[Cu Sc]
+14.4 +8.8 69 +13 +13 прохладно 1021.1 1020.6 +9.3 +15.8
03 18.05 ЮВ 3 30 км 10/10 1500 м
[]
+13.3 +8.4 72 +12 +12 по сезону 1021.1 1020.6
06 18.05 В 4 30 км 10/10 1500 м
[Sc]
+12.6 +8.7 77 +11 +11 по сезону 1021.5 1021.0 +9.3 +15.8
09 18.05 В 4 30 км 10/10 600 м
[]
+11.8 +8.1 78 +10 +10 по сезону 1021.7 1021.2
12 18.05 В 5 30 км 10/10 1000 м
[Sc]
+11.2 +8.3 82 +9 +9 по сезону 1021.6 1021.1 +11.1 +15.8
15 18.05 В 4 45 км 10/10 600 м
[]
+12.4 +9.1 80 +11 +11 по сезону 1022.0 1021.5
18 18.05 ЮЗ 4 45 км 10/8 600 м
[Cu Sc Ac As]
+13.8 +8.9 72 +12 +13 по сезону 1022.3 1021.8 +11.1 +14.1
21 18.05 ЮЗ 4 45 км 10/10 1000 м
[]
+15.3 +9.5 68 +14 +14 по сезону 1021.6 1021.1
00 19.05 ЮЗ 3 45 км 10/1 1000 м
[Cu hum Ac As]
+15.2 +8.7 65 +15 +17 по сезону 1020.7 1020.2 +11.1 +16.6
03 19.05 З 2 30 км 3/0
[]
+14.4 +9.3 71 +14 +15 по сезону 1019.6 1019.1
06 19.05 С 1 30 км 5/0
[Ac As]
+13.5 +6.9 64 +15 +15 тепло 1020.2 1019.7 +11.1 +16.6
09 19.05 СВ 3 30 км 9/0 2000 м
[]
+12.2 +7.7 74 +11 +11 по сезону 1020.5 1020.0
12 19.05 В 2 30 км 9/0 2000 м
[Ac As]
+11.5 +8.0 79 +11 +11 по сезону 1020.3 1019.8 +10.6 +16.6
15 19.05 ЮВ 2 45 км 10/0 2000 м
[]
+13.0 +8.9 76 +13 +15 тепло 1021.0 1020.5
18 19.05 З 3 45 км 10/1 1000 м
[Cu hum Ac As]
+14.2 +9.7 74 +13 +16 по сезону 1021.1 1020.6 +10.6 +14.4
21 19.05 З 3 45 км 10/10 1000 м
[]
+16.1 +8.7 61 +16 +16 тепло 1020.5 1020.0
00 20.05 З 3 45 км 10/1 1000 м
[Cu hum Ac As Cs]
+15.6 +10.8 73 +15 +18 по сезону 1019.7 1019.2 +10.6 +17.8
03 20.05 СЗ 3 30 км 9/0
[]
+14.4 +11.0 80 +13 +14 по сезону 1019.2 1018.7
06 20.05 З 2 30 км 9/0
[Ac As]
+12.8 +11.6 92 +12 +12 по сезону 1019.5 1019.0 +10.6 +17.8
09 20.05 З 2 30 км 9/0 2000 м
[]
+10.8 +9.7 93 +10 +10 по сезону 1019.7 1019.2
12 20.05 С 2 30 км ясно +8.3 +7.1 92 +7 +7 по сезону 1020.7 1020.2 +7.8 +17.8
15 20.05 Ю 2 45 км 1/0
[]
+13.5 +9.8 78 +13 +17 по сезону 1021.9 1021.4
18 20.05 З 5 45 км 1/1 600 м
[Cu hum Ci fib]
+16.2 +10.8 70 +15 +22 тепло 1022.7 1022.2 +7.8 +16.3
21 20.05 З 4 45 км ясно +17.3 +12.1 71 +17 +28 тепло 1022.6 1022.1
00 21.05 З 4 45 км ясно +18.2 +12.1 68 +18 +24 тепло 1021.7 1021.2 +7.8 +18.7
03 21.05 З 3 45 км 1/0
[]
+16.4 +12.0 75 +16 +17 тепло 1020.9 1020.4
06 21.05 ЮВ 1 30 км 1/0
[Ci fib]
+15.9 +10.5 70 +17 +17 тепло 1022.0 1021.5 +7.8 +18.7
09 21.05 В 3 30 км ясно +12.0 +9.8 86 +11 +11 по сезону 1023.5 1023.0
12 21.05 С 1 45 км 1/0
[Ci fib]
+9.2 +7.8 91 +8 +8 по сезону 1024.6 1024.1 +9.2 +18.7
15 21.05 З 2 45 км 9/0
[]
+15.6 +11.6 77 +16 +18 тепло 1025.0 1024.5
18 21.05 З 3 45 км 10/0
[Cs]
+17.4 +12.6 73 +17 +26 тепло 1025.0 1024.5 +8.4 +17.7
21 21.05 З 5 45 км 10/0
[]
+18.8 +12.6 67 +19 +24 тепло 1024.1 1023.6
00 22.05 З 6 45 км 10/0
[Cs]
+17.9 +13.3 74 +17 +20 по сезону 1022.8 1022.3 +8.4 +19.8
03 22.05 СЗ 5 45 км 5/0
[]
+17.2 +13.0 76 +17 +17 тепло 1021.5 1021.0
06 22.05 З 3 45 км 1/0
[Ci fib]
+13.9 +11.6 86 +13 +13 по сезону 1021.9 1021.4 +8.4 +19.8 2
09 22.05 В 1 30 км ясно +14.1 +10.4 78 +14 +14 тепло 1022.2 1021.7
12 22.05 С 1 45 км 3/0
[Ci fib]
+10.9 +8.3 84 +11 +11 по сезону 1022.5 1022.0 +10.8 +19.8
15 22.05 Ю 1 45 км 10/0
[]
+16.8 +10.5 66 +18 +20 тепло 1022.5 1022.0
18 22.05 ЮЗ 3 45 км 8/0
[Ac As Ci fib]
+18.2 +11.1 63 +19 +27 тепло 1022.1 1021.6 +9.9 +19.6
21 22.05 З 5 45 км 1/0
[]
+20.1 +13.6 66 +22 +31 комфорт 1021.0 1020.5
00 23.05 З 3 45 км 1/0
[Cc]
+20.6 +13.7 65 +23 +30 комфорт 1018.6 1018.1 +9.9 +21.7
03 23.05 З 3 45 км 5/0
[]
+17.5 +13.3 76 +18 +18 тепло 1017.4 1016.9
06 23.05 С 1 45 км 1/0
[Ci fib]
+15.3 +12.1 81 +17 +17 тепло 1016.8 1016.3 +9.9 +21.7
09 23.05 СВ 2 30 км 3/0
[]
+12.6 +10.3 86 +12 +12 по сезону 1016.3 1015.8
12 23.05 СЗ 3 45 км 1/0
[Ci fib]
+10.9 +9.8 93 +9 +9 по сезону 1016.5 1016.0 +10.0 +21.7
15 23.05 В 3 45 км ясно +17.3 +11.6 69 +17 +21 тепло 1016.1 1015.6
18 23.05 З 4 45 км ясно +18.4 +12.0 66 +19 +29 тепло 1015.0 1014.5 +10.0 +19.6
21 23.05 ЮВ 5 45 км ясно +21.5 +14.3 64 +24 +34 комфорт 1013.0 1012.5
00 24.05 ЮЗ 8 45 км 3/1 1000 м
[Cu hum Ac As]
+20.1 +10.9 55 +21 +22 комфорт 1012.0 1011.5 +10.0 +22.4
03 24.05 З 12 45 км 1/1 1500 м
[]
+15.3 +8.6 64 +13 +13 по сезону 1012.4 1011.9

 

Местоположение метеостанции Vancouver (Канада): широта 49.20 долгота -123.10 высота над уровнем моря 4 м.

В архиве по умолчанию представлена погода в Vancouver за последнюю неделю. Архивные данные за месяц целиком и за предыдущие месяцы, начиная с января 2011 года, Вы можете получить, выбрав интересующий диапазон дат из раскрывающегося списка и нажав кнопку "Ввод!".

Внимание! Время в таблицах - всемирное. Для получения местного времени необходимо прибавить поправку, которая в Vancouver равна -8 ч.

Смотрите также архив погоды в соседних городах и на ближайших метеорологических станциях:

Погода в Vancouver Hillcrest (Канада) (3 км)
Погода в Vancouver Sea Island Ccg (Канада) (7 км)
Погода в Vancouver (aut) (Канада) (11 км)
Погода в West Vancouver Camp (Канада) (14 км)
Погода в Point Atkinson (Канада) (17 км)
Погода в Sand Heads (Канада) (18 км)
Погода в Cypress Bowl South (Канада) (21 км)
Погода в Cypress Bowl North (Канада) (23 км)
Погода в Howe Sound (Канада) (32 км)
Погода в White Rock Campbell (Канада) (35 км)

Пояснения к столбцам:

Ветер - указаны скорость ветра в м/с - средняя за 10 мин, порывы в срок и между сроками (в фигурных скобках) и направление, откуда дует ветер: С - северный, СВ - северо-восточный, В - восточный, ЮВ - юго-восточный, Ю - южный, ЮЗ - юго-западный, З - западный, СЗ - северо-западный.
Видимость - горизонтальная дальность видимости в метрах или километрах. При видимости от 1 до 10 км при отсутствии осадков обычно наблюдается дымка, при ухудшении видимости до 1 км и менее - туман. В сухую погоду видимость может ухудшаться дымом, пылью или мглою.
Явления - указаны атмосферные явления, наблюдавшиеся в срок или в последний час перед сроком; фигурными скобками обозначены явления, наблюдавшиеся между сроками (за 1-3 часа до срока); квадратными скобками обозначены град или гололедные отложения с указанием их диаметра в мм.
Облачность - указаны через наклонную черту общая и нижняя облачность в баллах и высота нижней границы облаков в метрах; квадратными скобками обозначены формы облаков: Ci - перистые, Cs - перисто-слоистые, Cc - перисто-кучевые, Ac - высококучевые, As - высокослоистые, Sc - слоисто-кучевые, Ns - слоисто-дождевые, Cu - кучевые, Cb - кучево-дождевые. Подробнее классификацию облаков см. в Атласе облаков (PDF).
T - Температура воздуха - температура, измеренная на высоте 2 м над землей.
Td - Температура точки росы - температура, при понижении до которой содержащийся в воздухе водяной пар достигнет насыщения.
f - Относительная влажность воздуха - влажноcть воздуха, измеренная на высоте 2 м над землей.
Te - Эффективная температура - температура, которую ощущает одетый по сезону человек в тени. Характеристика душности погоды. При расчете учитывается влияние влажности воздуха и скорости ветра на теплоощущения человека.
Tes - Эффективная температура на солнце - температура, которую ощущает человек, с поправкой на солнечный нагрев. Характеристика знойности погоды. Зависит от высоты солнца над горизонтом, облачности и скорости ветра. Ночью, в пасмурную погоду, а также при ветре 12 м/с и более поправка равна нулю.
P - Атмосферное давление - приведенное к уровню моря атмосферное давление.
Po - Атмосферное давление - измеренное на уровне метеостанции атмосферное давление.
Tmin - Минимальная температура - минимум температуры воздуха на высоте 2 м над землей.
Tmax - Максимальная температура - максимум температуры воздуха на высоте 2 м над землей.
R - Количество осадков - Количество выпавших осадков за период времени, мм. При наведении курсора мыши на число - период времени, за который выпало указанное количество осадков.
R24 - Количество осадков - Количество выпавших осадков за 24 часа, мм.
S - Снежный покров - Высота снежного покрова, см. При наведении курсора мыши на число - состояние снежного покрова и степень покрытия местности в баллах.